Preview of NWS' New Version of Forecast
This preview is not operational and should not be used for support decisions.

Regional Weather Roundup (RWR)

Issued by National Weather Service (NWS)

                            
000
ASUS46 KSEW 170410
RWRWA 

WASHINGTON REGIONAL WEATHER ROUNDUP
NATIONAL WEATHER SERVICE SEATTLE WA
900 PM PDT SAT MAR 16 2019

NOTE:"FAIR" INDICATES FEW OR NO CLOUDS BELOW 12,000 FEET WITH NO 
SIGNIFICANT WEATHER AND/OR OBSTRUCTIONS TO VISIBILITY.

WAZ507-509-555>559-170500-
SEATTLE, TACOMA, EVERETT, AND VICINITY
  
CITY           SKY/WX    TMP DP  RH WIND       PRES   REMARKS
EVERETT        CLOUDY    49  39  68 CALM      30.27S                  
BOEING FIELD   CLOUDY    53  37  54 CALM      30.26S                  
RENTON         CLOUDY    51  42  71 NW6       30.26S                  
SEATAC AIRPORT CLOUDY    53  38  56 N7        30.26S                  
JBLM-MCCHORD   NOT AVBL                                               
PUYALLUP       FAIR      50  39  66 CALM      30.26S                  
BREMERTON      CLOUDY    49  39  68 NE3       30.27R                  
JBLM-FT LEWIS  NOT AVBL                                               
TACOMA NARROWS CLOUDY    51  39  63 N3        30.27R                  
$$
 
WAZ001-503-506-510-514-515-170500-
NORTH INTERIOR
  
CITY           SKY/WX    TMP DP  RH WIND       PRES   REMARKS
BELLINGHAM     CLOUDY    46  37  71 CALM      30.28R                  
FRIDAY HARBOR  CLOUDY    46  36  68 CALM      30.29R                  
EASTSOUND      CLOUDY   N/A N/A N/A MISG        N/A                   
PORT ANGELES   CLOUDY    45  38  76 CALM      30.28S                  
EDIZ HOOK      FAIR      46  43  89 CALM      30.28S                  
PORT TOWNSEND  FAIR      45  41  87 CALM      30.27S                  
NAS WHIDBEY    MOCLDY    48  40  73 CALM      30.32R                  
ARLINGTON      CLOUDY    50  41  71 CALM      30.28R                  
BURLINGTON     CLEAR     46  41  81 W3        30.28R                  
$$
 
WAZ020-022-039-040-504-511-512-170500-
SOUTHWEST INTERIOR
  
CITY           SKY/WX    TMP DP  RH WIND       PRES   REMARKS
SHELTON        CLOUDY    51  41  68 N3        30.24R                  
OLYMPIA        CLOUDY    50  38  63 N3        30.25S                  
CHEHALIS       FAIR      50  45  81 CALM      30.24S                  
KELSO          CLOUDY    54  40  59 N3        30.24S                  
VANCOUVER      CLOUDY    50  34  54 SE6       30.23S                  
SCAPPOOSE, OR  CLOUDY    51  42  71 W3        30.23R                  
PORTLAND, OR   CLOUDY    50  33  52 SE10      30.24R                  
$$
 
WAZ021-516-517-170500-
WASHINGTON COAST
  
CITY           SKY/WX    TMP DP  RH WIND       PRES   REMARKS
FORKS          PTCLDY    47  41  80 E3        30.24S                  
HOQUIAM        MOCLDY    50  45  83 CALM      30.24F                  
ASTORIA, OR    MOCLDY    47  43  86 CALM      30.23F                  
$$
 
WAZ019-023-024-040-567>569-170500-
CASCADE MOUNTAINS AND COLUMBIA GORGE
  
CITY           SKY/WX    TMP DP  RH WIND       PRES   REMARKS
STAMPEDE PASS  NOT AVBL                                               
TROUTDALE, OR  CLOUDY    50  33  52 E22G28    30.24S                  
HOOD RIVER, OR CLOUDY    43  32  65 MISG      30.33R                  
THE DALLES, OR CLOUDY    40  33  76 CALM      30.35R                  
$$

WAZ026-027-041>044-520-521-170500-
EAST SLOPES
  
CITY           SKY/WX    TMP DP  RH WIND       PRES   REMARKS
OMAK           CLOUDY    38  27  64 CALM      30.33R                  
WENATCHEE      MOCLDY    38  29  70 E3        30.31S                  
ELLENSBURG     MOCLDY    36  29  75 NE3       30.30R                  
YAKIMA         CLOUDY    39  28  64 CALM      30.33R                  
SUNNYSIDE ARPT MOCLDY    35  32  92 NE3       30.34                   
YAKIMA TC      NOT AVBL                                               
$$

WAZ028-034-035-170500-
COLUMBIA BASIN
  
CITY           SKY/WX    TMP DP  RH WIND       PRES   REMARKS
EPHRATA        CLOUDY    39  29  67 NW7       30.31S                  
MOSES LAKE     MOCLDY    38  29  70 W6        30.32S                  
PASCO          PTCLDY    32  28  85 N6        30.36R                  
RICHLAND ARPT  PTCLDY    36  31  82 CALM      30.36R                  
HERMISTON, OR  CLEAR     37  30  75 E5        30.32S                  
$$

WAZ036>038-170500-
NORTHEAST WASHINGTON
  
CITY           SKY/WX    TMP DP  RH WIND       PRES   REMARKS
SPOKANE GEIGER MOCLDY    36  26  67 SW5       30.28S                  
SPOKANE FELTS  PTCLDY    36  29  75 NE3       30.29S                  
FAIRCHILD AFB  NOT AVBL                                               
COEURDALENE,ID PTCLDY    34  29  82 E5        30.29R                  
DEER PARK      PTCLDY    31  25  78 CALM      30.28S                  
$$

WAZ029>033-170500-
SOUTHEAST WASHINGTON
  
CITY           SKY/WX    TMP DP  RH WIND       PRES   REMARKS
PULLMAN        PTCLDY    32  25  75 CALM      30.29S                  
LEWISTON, ID   MOCLDY    41  30  65 S3        30.29R                  
WALLA WALLA    CLEAR     38  30  73 S3        30.32R                  
PENDLETON, OR  CLEAR     33  28  81 E5        30.30R                  
$$